Year,Month,Day,Hour,Minute,Value (Times are PST for windgust in km/hr)
2023,04,21,00,03,1.60
2023,04,21,00,08,3.20
2023,04,21,00,09,1.60
2023,04,21,00,12,1.60
2023,04,21,00,13,3.20
2023,04,21,00,14,1.60
2023,04,21,00,15,3.20
2023,04,21,00,16,3.20
2023,04,21,00,38,3.20
2023,04,21,00,54,3.20
2023,04,21,00,56,3.20
2023,04,21,00,57,3.20
2023,04,21,00,58,3.20
2023,04,21,00,59,3.20
2023,04,21,01,00,3.20
2023,04,21,01,01,3.20
2023,04,21,01,02,4.80
2023,04,21,01,03,6.40
2023,04,21,01,04,4.80
2023,04,21,01,05,3.20
2023,04,21,01,06,3.20
2023,04,21,01,08,1.60
2023,04,21,01,09,4.80
2023,04,21,01,13,3.20
2023,04,21,01,14,4.80
2023,04,21,01,15,4.80
2023,04,21,01,16,4.80
2023,04,21,01,17,3.20
2023,04,21,01,18,6.40
2023,04,21,01,19,6.40
2023,04,21,01,20,9.60
2023,04,21,01,21,9.60
2023,04,21,01,22,8.10
2023,04,21,01,23,4.80
2023,04,21,01,24,1.60
2023,04,21,01,25,1.60
2023,04,21,01,26,3.20
2023,04,21,01,27,3.20
2023,04,21,01,28,3.20
2023,04,21,01,29,1.60
2023,04,21,01,30,1.60
2023,04,21,01,31,1.60
2023,04,21,01,39,3.20
2023,04,21,01,40,3.20
2023,04,21,01,41,1.60
2023,04,21,01,52,1.60
2023,04,21,01,54,1.60
2023,04,21,01,55,4.80
2023,04,21,01,56,3.20
2023,04,21,01,57,4.80
2023,04,21,01,58,6.40
2023,04,21,01,59,4.80
2023,04,21,02,00,4.80
2023,04,21,02,01,4.80
2023,04,21,02,02,4.80
2023,04,21,02,03,1.60
2023,04,21,02,04,1.60
2023,04,21,02,05,3.20
2023,04,21,02,06,3.20
2023,04,21,02,07,1.60
2023,04,21,02,10,1.60
2023,04,21,02,38,1.60
2023,04,21,02,39,1.60
2023,04,21,02,45,1.60
2023,04,21,02,46,3.20
2023,04,21,02,47,3.20
2023,04,21,02,48,3.20
2023,04,21,02,49,3.20
2023,04,21,02,50,3.20
2023,04,21,02,51,6.40
2023,04,21,02,52,6.40
2023,04,21,02,53,6.40
2023,04,21,02,54,6.40
2023,04,21,02,55,4.80
2023,04,21,02,56,6.40
2023,04,21,02,57,8.10
2023,04,21,02,58,6.40
2023,04,21,02,59,11.30
2023,04,21,03,00,9.60
2023,04,21,03,01,9.60
2023,04,21,03,02,8.10
2023,04,21,03,03,8.10
2023,04,21,03,04,8.10
2023,04,21,03,05,8.10
2023,04,21,03,06,9.60
2023,04,21,03,07,11.30
2023,04,21,03,08,12.90
2023,04,21,03,09,11.30
2023,04,21,03,10,9.60
2023,04,21,03,11,9.60
2023,04,21,03,12,9.60
2023,04,21,03,13,11.30
2023,04,21,03,14,16.10
2023,04,21,03,15,8.10
2023,04,21,03,16,9.60
2023,04,21,03,17,12.90
2023,04,21,03,18,16.10
2023,04,21,03,19,12.90
2023,04,21,03,20,9.60
2023,04,21,03,21,9.60
2023,04,21,03,22,4.80
2023,04,21,03,23,11.30
2023,04,21,03,24,9.60
2023,04,21,03,25,4.80
2023,04,21,03,26,9.60
2023,04,21,03,27,9.60
2023,04,21,03,28,6.40
2023,04,21,03,29,6.40
2023,04,21,03,30,3.20
2023,04,21,03,31,3.20
2023,04,21,03,32,4.80
2023,04,21,03,33,3.20
2023,04,21,03,34,3.20
2023,04,21,03,35,4.80
2023,04,21,03,36,1.60
2023,04,21,03,39,6.40
2023,04,21,03,40,6.40
2023,04,21,03,41,6.40
2023,04,21,03,42,1.60
2023,04,21,03,43,4.80
2023,04,21,03,44,9.60
2023,04,21,03,45,6.40
2023,04,21,03,46,6.40
2023,04,21,03,47,8.10
2023,04,21,03,48,6.40
2023,04,21,03,49,6.40
2023,04,21,03,50,6.40
2023,04,21,03,51,6.40
2023,04,21,03,52,4.80
2023,04,21,03,53,6.40
2023,04,21,03,54,4.80
2023,04,21,03,55,8.10
2023,04,21,03,56,6.40
2023,04,21,03,57,3.20
2023,04,21,03,58,8.10
2023,04,21,03,59,6.40
2023,04,21,04,00,6.40
2023,04,21,04,01,3.20
2023,04,21,04,02,8.10
2023,04,21,04,03,4.80
2023,04,21,04,04,4.80
2023,04,21,04,05,4.80
2023,04,21,04,06,3.20
2023,04,21,04,07,4.80
2023,04,21,04,08,4.80
2023,04,21,04,09,3.20
2023,04,21,04,10,3.20
2023,04,21,04,11,4.80
2023,04,21,04,12,4.80
2023,04,21,04,13,8.10
2023,04,21,04,14,8.10
2023,04,21,04,15,4.80
2023,04,21,04,16,8.10
2023,04,21,04,17,9.60
2023,04,21,04,18,8.10
2023,04,21,04,19,6.40
2023,04,21,04,20,6.40
2023,04,21,04,21,8.10
2023,04,21,04,22,6.40
2023,04,21,04,23,8.10
2023,04,21,04,24,9.60
2023,04,21,04,25,8.10
2023,04,21,04,26,14.50
2023,04,21,04,27,11.30
2023,04,21,04,28,11.30
2023,04,21,04,29,8.10
2023,04,21,04,30,11.30
2023,04,21,04,31,11.30
2023,04,21,04,32,12.90
2023,04,21,04,33,11.30
2023,04,21,04,34,11.30
2023,04,21,04,35,14.50
2023,04,21,04,36,11.30
2023,04,21,04,37,11.30
2023,04,21,04,38,12.90
2023,04,21,04,39,4.80
2023,04,21,04,40,11.30
2023,04,21,04,41,14.50
2023,04,21,04,42,14.50
2023,04,21,04,43,16.10
2023,04,21,04,44,12.90
2023,04,21,04,45,11.30
2023,04,21,04,46,19.30
2023,04,21,04,47,11.30
2023,04,21,04,48,8.10
2023,04,21,04,49,12.90
2023,04,21,04,50,9.60
2023,04,21,04,51,11.30
2023,04,21,04,52,17.70
2023,04,21,04,53,9.60
2023,04,21,04,54,9.60
2023,04,21,04,55,12.90
2023,04,21,04,56,9.60
2023,04,21,04,57,8.10
2023,04,21,04,58,11.30
2023,04,21,04,59,11.30
2023,04,21,05,00,4.80
2023,04,21,05,01,3.20
2023,04,21,05,02,3.20
2023,04,21,05,03,6.40
2023,04,21,05,04,4.80
2023,04,21,05,05,1.60
2023,04,21,05,06,1.60
2023,04,21,05,07,1.60
2023,04,21,05,09,6.40
2023,04,21,05,10,3.20
2023,04,21,05,11,3.20
2023,04,21,05,12,11.30
2023,04,21,05,13,9.60
2023,04,21,05,14,8.10
2023,04,21,05,15,3.20
2023,04,21,05,16,3.20
2023,04,21,05,17,1.60
2023,04,21,05,18,4.80
2023,04,21,05,19,3.20
2023,04,21,05,20,3.20
2023,04,21,05,21,1.60
2023,04,21,05,22,4.80
2023,04,21,05,23,6.40
2023,04,21,05,24,8.10
2023,04,21,05,25,16.10
2023,04,21,05,26,14.50
2023,04,21,05,27,14.50
2023,04,21,05,28,20.90
2023,04,21,05,29,20.90
2023,04,21,05,30,12.90
2023,04,21,05,31,14.50
2023,04,21,05,32,14.50
2023,04,21,05,33,20.90
2023,04,21,05,34,17.70
2023,04,21,05,35,19.30
2023,04,21,05,36,19.30
2023,04,21,05,37,16.10
2023,04,21,05,38,20.90
2023,04,21,05,39,19.30
2023,04,21,05,40,14.50
2023,04,21,05,41,14.50
2023,04,21,05,42,17.70
2023,04,21,05,43,12.90
2023,04,21,05,44,16.10
2023,04,21,05,45,24.20
2023,04,21,05,46,16.10
2023,04,21,05,47,14.50
2023,04,21,05,48,16.10
2023,04,21,05,49,14.50
2023,04,21,05,50,11.30
2023,04,21,05,51,16.10
2023,04,21,05,52,11.30
2023,04,21,05,53,11.30
2023,04,21,05,54,11.30
2023,04,21,05,55,11.30
2023,04,21,05,56,4.80
2023,04,21,05,57,3.20
2023,04,21,05,58,9.60
2023,04,21,05,59,11.30
2023,04,21,06,00,12.90
2023,04,21,06,01,11.30
2023,04,21,06,02,9.60
2023,04,21,06,03,16.10
2023,04,21,06,04,17.70
2023,04,21,06,05,16.10
2023,04,21,06,06,17.70
2023,04,21,06,07,9.60
2023,04,21,06,08,14.50
2023,04,21,06,09,14.50
2023,04,21,06,10,19.30
2023,04,21,06,11,17.70
2023,04,21,06,12,20.90
2023,04,21,06,13,11.30
2023,04,21,06,14,20.90
2023,04,21,06,15,14.50
2023,04,21,06,16,12.90
2023,04,21,06,17,19.30
2023,04,21,06,18,19.30
2023,04,21,06,19,8.10
2023,04,21,06,20,12.90
2023,04,21,06,21,17.70
2023,04,21,06,22,16.10
2023,04,21,06,23,16.10
2023,04,21,06,24,12.90
2023,04,21,06,25,16.10
2023,04,21,06,26,14.50
2023,04,21,06,27,14.50
2023,04,21,06,28,14.50
2023,04,21,06,29,8.10
2023,04,21,06,30,14.50
2023,04,21,06,31,17.70
2023,04,21,06,32,16.10
2023,04,21,06,33,11.30
2023,04,21,06,34,16.10
2023,04,21,06,35,19.30
2023,04,21,06,36,11.30
2023,04,21,06,37,11.30
2023,04,21,06,38,14.50
2023,04,21,06,39,17.70
2023,04,21,06,40,16.10
2023,04,21,06,41,16.10
2023,04,21,06,42,12.90
2023,04,21,06,43,14.50
2023,04,21,06,44,14.50
2023,04,21,06,45,12.90
2023,04,21,06,46,17.70
2023,04,21,06,47,22.50
2023,04,21,06,48,19.30
2023,04,21,06,49,12.90
2023,04,21,06,50,12.90
2023,04,21,06,51,11.30
2023,04,21,06,52,9.60
2023,04,21,06,53,14.50
2023,04,21,06,54,14.50
2023,04,21,06,55,11.30
2023,04,21,06,56,16.10
2023,04,21,06,57,17.70
2023,04,21,06,58,14.50
2023,04,21,06,59,11.30
2023,04,21,07,00,14.50
2023,04,21,07,01,11.30
2023,04,21,07,02,9.60
2023,04,21,07,03,11.30
2023,04,21,07,04,12.90
2023,04,21,07,05,9.60
2023,04,21,07,06,9.60
2023,04,21,07,07,6.40
2023,04,21,07,08,12.90
2023,04,21,07,09,14.50
2023,04,21,07,10,9.60
2023,04,21,07,11,11.30
2023,04,21,07,12,9.60
2023,04,21,07,13,14.50
2023,04,21,07,14,16.10
2023,04,21,07,15,12.90
2023,04,21,07,16,12.90
2023,04,21,07,17,11.30
2023,04,21,07,18,12.90
2023,04,21,07,19,17.70
2023,04,21,07,20,20.90
2023,04,21,07,21,12.90
2023,04,21,07,22,17.70
2023,04,21,07,23,12.90
2023,04,21,07,24,11.30
2023,04,21,07,25,11.30
2023,04,21,07,26,11.30
2023,04,21,07,27,8.10
2023,04,21,07,28,9.60
2023,04,21,07,29,6.40
2023,04,21,07,30,8.10
2023,04,21,07,31,14.50
2023,04,21,07,32,11.30
2023,04,21,07,33,12.90
2023,04,21,07,34,11.30
2023,04,21,07,35,11.30
2023,04,21,07,36,12.90
2023,04,21,07,37,11.30
2023,04,21,07,38,8.10
2023,04,21,07,39,8.10
2023,04,21,07,40,11.30
2023,04,21,07,41,14.50
2023,04,21,07,42,6.40
2023,04,21,07,43,6.40
2023,04,21,07,44,9.60
2023,04,21,07,45,8.10
2023,04,21,07,46,6.40
2023,04,21,07,47,4.80
2023,04,21,07,48,8.10
2023,04,21,07,49,6.40
2023,04,21,07,50,4.80
2023,04,21,07,51,6.40
2023,04,21,07,52,4.80
2023,04,21,07,53,3.20
2023,04,21,07,54,3.20
2023,04,21,07,55,4.80
2023,04,21,07,56,4.80
2023,04,21,07,57,3.20
2023,04,21,07,58,6.40
2023,04,21,07,59,4.80
2023,04,21,08,00,8.10
2023,04,21,08,01,6.40
2023,04,21,08,02,3.20
2023,04,21,08,03,6.40
2023,04,21,08,04,3.20
2023,04,21,08,05,4.80
2023,04,21,08,06,1.60
2023,04,21,08,12,3.20
2023,04,21,08,13,1.60
2023,04,21,08,15,4.80
2023,04,21,08,16,3.20
2023,04,21,08,17,3.20
2023,04,21,08,18,1.60
2023,04,21,08,22,1.60
2023,04,21,08,23,1.60
2023,04,21,08,24,1.60
2023,04,21,08,26,1.60
2023,04,21,08,27,1.60
2023,04,21,08,31,4.80
2023,04,21,08,32,4.80
2023,04,21,08,33,4.80
2023,04,21,08,34,4.80
2023,04,21,08,35,3.20
2023,04,21,08,36,6.40
2023,04,21,08,37,4.80
2023,04,21,08,38,6.40
2023,04,21,08,39,6.40
2023,04,21,08,40,6.40
2023,04,21,08,41,9.60
2023,04,21,08,42,9.60
2023,04,21,08,43,9.60
2023,04,21,08,44,6.40
2023,04,21,08,45,3.20
2023,04,21,08,46,4.80
2023,04,21,08,47,4.80
2023,04,21,08,48,9.60
2023,04,21,08,49,9.60
2023,04,21,08,50,4.80
2023,04,21,08,51,8.10
2023,04,21,08,52,6.40
2023,04,21,08,53,8.10
2023,04,21,08,54,8.10
2023,04,21,08,55,4.80
2023,04,21,08,56,4.80
2023,04,21,08,57,6.40
2023,04,21,08,58,3.20
2023,04,21,08,59,1.60
2023,04,21,09,02,3.20
2023,04,21,09,03,4.80
2023,04,21,09,04,6.40
2023,04,21,09,05,6.40
2023,04,21,09,06,6.40
2023,04,21,09,07,8.10
2023,04,21,09,08,6.40
2023,04,21,09,09,8.10
2023,04,21,09,10,8.10
2023,04,21,09,11,8.10
2023,04,21,09,12,8.10
2023,04,21,09,13,8.10
2023,04,21,09,14,6.40
2023,04,21,09,15,8.10
2023,04,21,09,16,6.40
2023,04,21,09,17,8.10
2023,04,21,09,18,8.10
2023,04,21,09,19,9.60
2023,04,21,09,20,9.60
2023,04,21,09,21,9.60
2023,04,21,09,22,9.60
2023,04,21,09,23,9.60
2023,04,21,09,24,8.10
2023,04,21,09,25,6.40
2023,04,21,09,26,6.40
2023,04,21,09,27,6.40
2023,04,21,09,28,4.80
2023,04,21,09,29,3.20
2023,04,21,09,30,3.20
2023,04,21,09,31,4.80
2023,04,21,09,32,4.80
2023,04,21,09,33,3.20
2023,04,21,09,34,3.20
2023,04,21,09,36,3.20
2023,04,21,09,37,1.60
2023,04,21,09,38,3.20
2023,04,21,09,39,4.80
2023,04,21,09,40,6.40
2023,04,21,09,41,4.80
2023,04,21,09,42,3.20
2023,04,21,09,43,1.60
2023,04,21,09,44,3.20
2023,04,21,09,45,3.20
2023,04,21,09,46,4.80
2023,04,21,09,47,3.20
2023,04,21,09,48,3.20
2023,04,21,09,49,1.60
2023,04,21,09,50,3.20
2023,04,21,09,52,3.20
2023,04,21,09,53,3.20
2023,04,21,09,54,1.60
2023,04,21,09,55,3.20
2023,04,21,09,56,3.20
2023,04,21,09,58,1.60
2023,04,21,09,59,1.60
2023,04,21,10,00,11.30
2023,04,21,10,01,16.10
2023,04,21,10,02,14.50
2023,04,21,10,03,14.50
2023,04,21,10,04,14.50
2023,04,21,10,05,14.50
2023,04,21,10,06,16.10
2023,04,21,10,07,16.10
2023,04,21,10,08,16.10
2023,04,21,10,09,16.10
2023,04,21,10,10,17.70
2023,04,21,10,11,17.70
2023,04,21,10,12,17.70
2023,04,21,10,13,17.70
2023,04,21,10,14,17.70
2023,04,21,10,15,19.30
2023,04,21,10,16,19.30
2023,04,21,10,17,19.30
2023,04,21,10,18,17.70
2023,04,21,10,19,19.30
2023,04,21,10,20,19.30
2023,04,21,10,21,17.70
2023,04,21,10,22,19.30
2023,04,21,10,23,17.70
2023,04,21,10,24,17.70
2023,04,21,10,25,17.70
2023,04,21,10,26,17.70
2023,04,21,10,27,16.10
2023,04,21,10,28,19.30
2023,04,21,10,29,19.30
2023,04,21,10,30,19.30
2023,04,21,10,31,17.70
2023,04,21,10,32,17.70
2023,04,21,10,33,16.10
2023,04,21,10,34,16.10
2023,04,21,10,35,17.70
2023,04,21,10,36,16.10
2023,04,21,10,37,17.70
2023,04,21,10,38,17.70
2023,04,21,10,39,16.10
2023,04,21,10,40,16.10
2023,04,21,10,41,17.70
2023,04,21,10,42,17.70
2023,04,21,10,43,17.70
2023,04,21,10,44,17.70
2023,04,21,10,45,16.10
2023,04,21,10,46,16.10
2023,04,21,10,47,16.10
2023,04,21,10,48,16.10
2023,04,21,10,49,17.70
2023,04,21,10,50,17.70
2023,04,21,10,51,17.70
2023,04,21,10,52,17.70
2023,04,21,10,53,19.30
2023,04,21,10,54,19.30
2023,04,21,10,55,19.30
2023,04,21,10,56,17.70
2023,04,21,10,57,17.70
2023,04,21,10,58,17.70
2023,04,21,10,59,19.30
2023,04,21,11,00,19.30
2023,04,21,11,01,19.30
2023,04,21,11,02,17.70
2023,04,21,11,03,17.70
2023,04,21,11,04,17.70
2023,04,21,11,05,17.70
2023,04,21,11,06,16.10
2023,04,21,11,07,16.10
2023,04,21,11,08,16.10
2023,04,21,11,09,17.70
2023,04,21,11,10,17.70
2023,04,21,11,11,20.90
2023,04,21,11,12,19.30
2023,04,21,11,13,19.30
2023,04,21,11,14,19.30
2023,04,21,11,15,19.30
2023,04,21,11,16,19.30
2023,04,21,11,17,24.20
2023,04,21,11,18,20.90
2023,04,21,11,19,20.90
2023,04,21,11,20,22.50
2023,04,21,11,21,22.50
2023,04,21,11,22,19.30
2023,04,21,11,23,20.90
2023,04,21,11,24,22.50
2023,04,21,11,25,22.50
2023,04,21,11,26,19.30
2023,04,21,11,27,20.90
2023,04,21,11,28,17.70
2023,04,21,11,29,19.30
2023,04,21,11,30,22.50
2023,04,21,11,31,25.70
2023,04,21,11,32,19.30
2023,04,21,11,33,17.70
2023,04,21,11,34,22.50
2023,04,21,11,35,17.70
2023,04,21,11,36,20.90
2023,04,21,11,37,19.30
2023,04,21,11,38,19.30
2023,04,21,11,39,20.90
2023,04,21,11,40,22.50
2023,04,21,11,41,16.10
2023,04,21,11,42,19.30
2023,04,21,11,43,17.70
2023,04,21,11,44,22.50
2023,04,21,11,45,16.10
2023,04,21,11,46,16.10
2023,04,21,11,47,17.70
2023,04,21,11,48,16.10
2023,04,21,11,49,17.70
2023,04,21,11,50,17.70
2023,04,21,11,51,22.50
2023,04,21,11,52,16.10
2023,04,21,11,53,17.70
2023,04,21,11,54,17.70
2023,04,21,11,55,17.70
2023,04,21,11,56,19.30
2023,04,21,11,57,19.30
2023,04,21,11,58,22.50
2023,04,21,11,59,16.10
2023,04,21,12,00,16.10
2023,04,21,12,01,17.70
2023,04,21,12,02,16.10
2023,04,21,12,03,16.10
2023,04,21,12,04,17.70
2023,04,21,12,05,14.50
2023,04,21,12,06,16.10
2023,04,21,12,07,14.50
2023,04,21,12,08,16.10
2023,04,21,12,09,14.50
2023,04,21,12,10,14.50
2023,04,21,12,11,16.10
2023,04,21,12,12,17.70
2023,04,21,12,13,14.50
2023,04,21,12,14,16.10
2023,04,21,12,15,14.50
2023,04,21,12,16,17.70
2023,04,21,12,17,16.10
2023,04,21,12,18,16.10
2023,04,21,12,19,17.70
2023,04,21,12,20,16.10
2023,04,21,12,21,16.10
2023,04,21,12,22,17.70
2023,04,21,12,23,17.70
2023,04,21,12,24,17.70
2023,04,21,12,25,19.30
2023,04,21,12,26,19.30
2023,04,21,12,27,20.90
2023,04,21,12,28,24.20
2023,04,21,12,29,20.90
2023,04,21,12,30,19.30
2023,04,21,12,31,20.90
2023,04,21,12,32,22.50
2023,04,21,12,33,20.90
2023,04,21,12,34,20.90
2023,04,21,12,35,20.90
2023,04,21,12,36,20.90
2023,04,21,12,37,17.70
2023,04,21,12,38,19.30
2023,04,21,12,39,19.30
2023,04,21,12,40,14.50
2023,04,21,12,41,20.90
2023,04,21,12,42,20.90
2023,04,21,12,43,17.70
2023,04,21,12,44,16.10
2023,04,21,12,45,19.30
2023,04,21,12,46,17.70
2023,04,21,12,47,19.30
2023,04,21,12,48,20.90
2023,04,21,12,49,20.90
2023,04,21,12,50,20.90
2023,04,21,12,51,20.90
2023,04,21,12,52,22.50
2023,04,21,12,53,25.70
2023,04,21,12,54,19.30
2023,04,21,12,55,20.90
2023,04,21,12,56,19.30
2023,04,21,12,57,17.70
2023,04,21,12,58,20.90
2023,04,21,12,59,24.20
2023,04,21,13,00,20.90
2023,04,21,13,01,24.20
2023,04,21,13,02,22.50
2023,04,21,13,03,19.30
2023,04,21,13,04,19.30
2023,04,21,13,05,19.30
2023,04,21,13,06,17.70
2023,04,21,13,07,19.30
2023,04,21,13,08,19.30
2023,04,21,13,09,16.10
2023,04,21,13,10,17.70
2023,04,21,13,11,17.70
2023,04,21,13,12,16.10
2023,04,21,13,13,17.70
2023,04,21,13,14,17.70
2023,04,21,13,15,19.30
2023,04,21,13,16,22.50
2023,04,21,13,17,22.50
2023,04,21,13,18,22.50
2023,04,21,13,19,22.50
2023,04,21,13,20,20.90
2023,04,21,13,21,24.20
2023,04,21,13,22,22.50
2023,04,21,13,23,24.20
2023,04,21,13,24,24.20
2023,04,21,13,25,24.20
2023,04,21,13,26,25.70
2023,04,21,13,27,25.70
2023,04,21,13,28,24.20
2023,04,21,13,29,29.00
2023,04,21,13,30,25.70
2023,04,21,13,31,24.20
2023,04,21,13,32,22.50
2023,04,21,13,33,24.20
2023,04,21,13,34,24.20
2023,04,21,13,35,25.70
2023,04,21,13,36,25.70
2023,04,21,13,37,25.70
2023,04,21,13,38,30.60
2023,04,21,13,39,25.70
2023,04,21,13,40,22.50
2023,04,21,13,41,25.70
2023,04,21,13,42,24.20
2023,04,21,13,43,24.20
2023,04,21,13,44,25.70
2023,04,21,13,45,24.20
2023,04,21,13,46,25.70
2023,04,21,13,47,22.50
2023,04,21,13,48,29.00
2023,04,21,13,49,29.00
2023,04,21,13,50,27.40
2023,04,21,13,51,24.20
2023,04,21,13,52,27.40
2023,04,21,13,53,29.00
2023,04,21,13,54,27.40
2023,04,21,13,55,29.00
2023,04,21,13,56,25.70
2023,04,21,13,57,24.20
2023,04,21,13,58,25.70
2023,04,21,13,59,25.70
2023,04,21,14,00,25.70
2023,04,21,14,01,25.70
2023,04,21,14,02,25.70
2023,04,21,14,03,27.40
2023,04,21,14,04,24.20
2023,04,21,14,05,25.70
2023,04,21,14,06,24.20
2023,04,21,14,07,27.40
2023,04,21,14,08,25.70
2023,04,21,14,09,27.40
2023,04,21,14,10,25.70
2023,04,21,14,11,29.00
2023,04,21,14,12,25.70
2023,04,21,14,13,24.20
2023,04,21,14,14,24.20
2023,04,21,14,15,29.00
2023,04,21,14,16,25.70
2023,04,21,14,17,25.70
2023,04,21,14,18,25.70
2023,04,21,14,19,24.20
2023,04,21,14,20,24.20
2023,04,21,14,21,22.50
2023,04,21,14,22,25.70
2023,04,21,14,23,22.50
2023,04,21,14,24,22.50
2023,04,21,14,25,24.20
2023,04,21,14,26,25.70
2023,04,21,14,27,25.70
2023,04,21,14,28,24.20
2023,04,21,14,29,24.20
2023,04,21,14,30,27.40
2023,04,21,14,31,27.40
2023,04,21,14,32,25.70
2023,04,21,14,33,24.20
2023,04,21,14,34,25.70
2023,04,21,14,35,25.70
2023,04,21,14,36,25.70
2023,04,21,14,37,25.70
2023,04,21,14,38,24.20
2023,04,21,14,39,22.50
2023,04,21,14,40,24.20
2023,04,21,14,41,24.20
2023,04,21,14,42,22.50
2023,04,21,14,43,24.20
2023,04,21,14,44,25.70
2023,04,21,14,45,24.20
2023,04,21,14,46,24.20
2023,04,21,14,47,20.90
2023,04,21,14,48,25.70
2023,04,21,14,49,24.20
2023,04,21,14,50,24.20
2023,04,21,14,51,25.70
2023,04,21,14,52,20.90
2023,04,21,14,53,25.70
2023,04,21,14,54,27.40
2023,04,21,14,55,25.70
2023,04,21,14,56,25.70
2023,04,21,14,57,27.40
2023,04,21,14,58,27.40
2023,04,21,14,59,25.70
2023,04,21,15,00,25.70
2023,04,21,15,01,25.70
2023,04,21,15,02,25.70
2023,04,21,15,03,24.20
2023,04,21,15,04,25.70
2023,04,21,15,05,22.50
2023,04,21,15,06,22.50
2023,04,21,15,07,24.20
2023,04,21,15,08,24.20
2023,04,21,15,09,25.70
2023,04,21,15,10,25.70
2023,04,21,15,11,24.20
2023,04,21,15,12,29.00
2023,04,21,15,13,20.90
2023,04,21,15,14,24.20
2023,04,21,15,15,22.50
2023,04,21,15,16,27.40
2023,04,21,15,17,22.50
2023,04,21,15,18,24.20
2023,04,21,15,19,24.20
2023,04,21,15,20,22.50
2023,04,21,15,21,25.70
2023,04,21,15,22,25.70
2023,04,21,15,23,22.50
2023,04,21,15,24,22.50
2023,04,21,15,25,25.70
2023,04,21,15,26,25.70
2023,04,21,15,27,22.50
2023,04,21,15,28,25.70
2023,04,21,15,29,24.20
2023,04,21,15,30,22.50
2023,04,21,15,31,22.50
2023,04,21,15,32,22.50
2023,04,21,15,33,22.50
2023,04,21,15,34,22.50
2023,04,21,15,35,29.00
2023,04,21,15,36,20.90
2023,04,21,15,37,24.20
2023,04,21,15,38,22.50
2023,04,21,15,39,22.50
2023,04,21,15,40,24.20
2023,04,21,15,41,22.50
2023,04,21,15,42,19.30
2023,04,21,15,43,20.90
2023,04,21,15,44,20.90
2023,04,21,15,45,24.20
2023,04,21,15,46,22.50
2023,04,21,15,47,20.90
2023,04,21,15,48,20.90
2023,04,21,15,49,22.50
2023,04,21,15,50,22.50
2023,04,21,15,51,22.50
2023,04,21,15,52,20.90
2023,04,21,15,53,22.50
2023,04,21,15,54,20.90
2023,04,21,15,55,20.90
2023,04,21,15,56,19.30
2023,04,21,15,57,22.50
2023,04,21,15,58,19.30
2023,04,21,15,59,19.30
2023,04,21,16,00,19.30
2023,04,21,16,01,19.30
2023,04,21,16,02,17.70
2023,04,21,16,03,17.70
2023,04,21,16,04,20.90
2023,04,21,16,05,17.70
2023,04,21,16,06,17.70
2023,04,21,16,07,14.50
2023,04,21,16,08,16.10
2023,04,21,16,09,16.10
2023,04,21,16,10,16.10
2023,04,21,16,11,17.70
2023,04,21,16,12,17.70
2023,04,21,16,13,17.70
2023,04,21,16,14,17.70
2023,04,21,16,15,20.90
2023,04,21,16,16,19.30
2023,04,21,16,17,19.30
2023,04,21,16,18,16.10
2023,04,21,16,19,16.10
2023,04,21,16,20,17.70
2023,04,21,16,21,19.30
2023,04,21,16,22,17.70
2023,04,21,16,23,16.10
2023,04,21,16,24,16.10
2023,04,21,16,25,17.70
2023,04,21,16,26,17.70
2023,04,21,16,27,19.30
2023,04,21,16,28,16.10
2023,04,21,16,29,17.70
2023,04,21,16,30,17.70
2023,04,21,16,31,16.10
2023,04,21,16,32,17.70
2023,04,21,16,33,19.30
2023,04,21,16,34,19.30
2023,04,21,16,35,16.10
2023,04,21,16,36,16.10
2023,04,21,16,37,19.30
2023,04,21,16,38,17.70
2023,04,21,16,39,17.70
2023,04,21,16,40,19.30
2023,04,21,16,41,17.70
2023,04,21,16,42,17.70
2023,04,21,16,43,19.30
2023,04,21,16,44,19.30
2023,04,21,16,45,17.70
2023,04,21,16,46,19.30
2023,04,21,16,47,19.30
2023,04,21,16,48,11.30
2023,04,21,16,49,16.10
2023,04,21,16,50,14.50
2023,04,21,16,51,12.90
2023,04,21,16,52,11.30
2023,04,21,16,53,9.60
2023,04,21,16,54,11.30
2023,04,21,16,55,11.30
2023,04,21,16,56,14.50
2023,04,21,16,57,11.30
2023,04,21,16,58,16.10
2023,04,21,16,59,11.30
2023,04,21,17,00,9.60
2023,04,21,17,01,12.90
2023,04,21,17,02,14.50
2023,04,21,17,03,16.10
2023,04,21,17,04,19.30
2023,04,21,17,05,17.70
2023,04,21,17,06,16.10
2023,04,21,17,07,19.30
2023,04,21,17,08,16.10
2023,04,21,17,09,11.30
2023,04,21,17,10,12.90
2023,04,21,17,11,9.60
2023,04,21,17,12,9.60
2023,04,21,17,13,12.90
2023,04,21,17,14,16.10
2023,04,21,17,15,14.50
2023,04,21,17,16,11.30
2023,04,21,17,17,12.90
2023,04,21,17,18,12.90
2023,04,21,17,19,9.60
2023,04,21,17,20,9.60
2023,04,21,17,21,14.50
2023,04,21,17,22,12.90
2023,04,21,17,23,12.90
2023,04,21,17,24,9.60
2023,04,21,17,25,8.10
2023,04,21,17,26,8.10
2023,04,21,17,27,11.30
2023,04,21,17,28,11.30
2023,04,21,17,29,9.60
2023,04,21,17,30,8.10
2023,04,21,17,31,11.30
2023,04,21,17,32,12.90
2023,04,21,17,33,9.60
2023,04,21,17,34,9.60
2023,04,21,17,35,9.60
2023,04,21,17,36,8.10
2023,04,21,17,37,8.10
2023,04,21,17,38,8.10
2023,04,21,17,39,4.80
2023,04,21,17,40,9.60
2023,04,21,17,41,9.60
2023,04,21,17,42,8.10
2023,04,21,17,43,9.60
2023,04,21,17,44,11.30
2023,04,21,17,45,8.10
2023,04,21,17,46,6.40
2023,04,21,17,47,8.10
2023,04,21,17,48,8.10
2023,04,21,17,49,11.30
2023,04,21,17,50,14.50
2023,04,21,17,51,12.90
2023,04,21,17,52,11.30
2023,04,21,17,53,9.60
2023,04,21,17,54,9.60
2023,04,21,17,55,9.60
2023,04,21,17,56,8.10
2023,04,21,17,57,8.10
2023,04,21,17,58,6.40
2023,04,21,17,59,8.10
2023,04,21,18,00,4.80
2023,04,21,18,01,4.80
2023,04,21,18,02,6.40
2023,04,21,18,03,4.80
2023,04,21,18,04,6.40
2023,04,21,18,05,8.10
2023,04,21,18,06,4.80
2023,04,21,18,07,4.80
2023,04,21,18,08,1.60
2023,04,21,18,09,1.60
2023,04,21,18,12,4.80
2023,04,21,18,13,8.10
2023,04,21,18,14,4.80
2023,04,21,18,15,1.60
2023,04,21,18,16,6.40
2023,04,21,18,17,3.20
2023,04,21,18,25,1.60
2023,04,21,18,26,3.20
2023,04,21,18,27,4.80
2023,04,21,18,28,3.20
2023,04,21,18,29,3.20
2023,04,21,18,30,3.20
2023,04,21,18,31,6.40
2023,04,21,18,32,11.30
2023,04,21,18,33,9.60
2023,04,21,18,34,9.60
2023,04,21,18,35,8.10
2023,04,21,18,36,4.80
2023,04,21,18,37,9.60
2023,04,21,18,38,9.60
2023,04,21,18,39,8.10
2023,04,21,18,40,6.40
2023,04,21,18,41,6.40
2023,04,21,18,42,8.10
2023,04,21,18,43,8.10
2023,04,21,18,44,6.40
2023,04,21,18,45,4.80
2023,04,21,18,46,4.80
2023,04,21,18,47,3.20
2023,04,21,18,48,1.60
2023,04,21,18,49,3.20
2023,04,21,18,50,3.20
2023,04,21,18,58,3.20
2023,04,21,18,59,3.20
2023,04,21,19,00,3.20
2023,04,21,19,01,3.20
2023,04,21,19,02,4.80
2023,04,21,19,03,4.80
2023,04,21,19,04,4.80
2023,04,21,19,05,3.20
2023,04,21,19,06,3.20
2023,04,21,19,07,3.20
2023,04,21,19,08,1.60
2023,04,21,19,09,1.60
2023,04,21,20,28,1.60
2023,04,21,20,29,1.60
2023,04,21,21,42,1.60
2023,04,21,21,43,1.60
2023,04,21,23,32,1.60
2023,04,21,23,33,3.20
2023,04,21,23,34,4.80
2023,04,21,23,35,4.80
2023,04,21,23,36,4.80
2023,04,21,23,37,4.80
2023,04,21,23,38,4.80
2023,04,21,23,39,4.80
2023,04,21,23,40,4.80
2023,04,21,23,41,4.80
2023,04,21,23,42,4.80
2023,04,21,23,43,4.80
2023,04,21,23,44,6.40
2023,04,21,23,45,6.40
2023,04,21,23,46,6.40
2023,04,21,23,47,8.10
2023,04,21,23,48,8.10
2023,04,21,23,49,6.40
2023,04,21,23,50,8.10
2023,04,21,23,51,6.40
2023,04,21,23,52,6.40
2023,04,21,23,53,6.40
2023,04,21,23,54,6.40
2023,04,21,23,55,6.40
2023,04,21,23,56,4.80
2023,04,21,23,57,6.40
2023,04,21,23,58,6.40
2023,04,21,23,59,4.80
